Weather History for Pierre, SD

Change the Weather History Date:

Sunday, January 6, 2013

  Actual Average Record
Temperature  
Mean Temperature 21 °F 20 °F  
Max Temperature 34 °F 29 °F 52 °F (1990)
Min Temperature 8 °F 10 °F -26 °F (1988)
Degree Days  
Heating Degree Days 44 46  
Month to date heating degree days 265 273  
Since 1 July heating degree days 3193 3235  
Cooling Degree Days 0 0  
Month to date cooling degree days 0 0  
Year to date cooling degree days 0 0  
Moisture  
Dew Point 16 °F    
Average Humidity 77    
Maximum Humidity 92    
Minimum Humidity 61    
Precipitation  
Precipitation 0.00 in 0.01 in 0.25 in (2010)
Month to date precipitation 0.01 0.09  
Year to date precipitation 0.01 0.09  
Snow  
Snow 0.00 in 0.20 in 5.40 in (2010)
Month to date snowfall 0.2 1.0  
Since 1 July snowfall 12.1 12.2  
Snow Depth 2.00 in    
Sea Level Pressure  
Sea Level Pressure 30.08 in    
Wind  
Wind Speed 8 mph (SSW)    
Max Wind Speed 18 mph    
Max Gust Speed 23 mph    
Visibility 10 miles    
Events      
T = Trace of Precipitation, MM = Missing Value Source: NWS Daily Summary

Daily Weather History Graph

Daily Weather History Graph

Search for Another Location

Airport:

Trip Planner

Search our weather history database for the weather conditions in past years. The results will help you decide how hot, cold, wet, or windy it might be!

Date:

Astronomy

Jan. 06, 2013 Rise Set
Actual Time 8:16 AM CST 5:17 PM CST
Civil Twilight 7:44 AM CST 5:50 PM CST
Nautical Twilight 7:07 AM CST 6:27 PM CST
Astronomical Twilight 6:32 AM CST 7:02 PM CST
Moon 2:28 AM CST (1/6) 12:50 PM CST (1/6)
Length of Visible Light 10h 06m
Length of Day
9h 00m
Waning Crescent, 33% of the Moon is Illuminated
Jan 6
Waning Crescent
Jan 11
New
Jan 18
First Quarter
Jan 26
Full
Feb 3
Last Quarter

Hourly Weather History & Observations

Time (CST) Temp. Windchill Dew Point Humidity Pressure Visibility Wind Dir Wind Speed Gust Speed Precip Events Conditions
12:53 AM 15.1 °F 1.8 °F 10.0 °F 80% 30.24 in - West 11.5 mph - N/A   Clear
1:53 AM 15.1 °F 1.1 °F 10.9 °F 84% 30.24 in - WNW 12.7 mph - N/A   Clear
2:53 AM 19.0 °F 7.5 °F 15.1 °F 85% 30.25 in 10.0 mi West 10.4 mph - N/A   Clear
3:53 AM 14.0 °F - 10.0 °F 84% 30.26 in - Calm Calm - N/A   Clear
4:53 AM 10.0 °F - 8.1 °F 92% 30.27 in 10.0 mi Calm Calm - N/A   Clear
5:53 AM 17.1 °F 6.6 °F 12.0 °F 81% 30.26 in - WSW 8.1 mph - N/A   Clear
6:53 AM 17.1 °F 5.0 °F 12.0 °F 81% 30.26 in 10.0 mi WSW 10.4 mph - N/A   Clear
7:53 AM 16.0 °F 5.3 °F 10.9 °F 81% 30.24 in - SW 8.1 mph - N/A   Clear
8:53 AM 9.0 °F -0.9 °F 6.1 °F 88% 30.24 in 10.0 mi SSE 5.8 mph - N/A   Clear
9:53 AM 15.1 °F 7.7 °F 12.0 °F 88% 30.24 in - SSE 4.6 mph - N/A   Clear
10:53 AM 15.1 °F - 10.9 °F 84% 30.22 in 10.0 mi Calm Calm - N/A   Clear
1:53 PM 25.0 °F 13.6 °F 19.0 °F 78% 30.04 in 10.0 mi ESE 12.7 mph - N/A   Unknown
2:53 PM 28.9 °F 17.7 °F 21.0 °F 72% 29.99 in 10.0 mi SE 15.0 mph - N/A   Clear
3:53 PM 30.9 °F 20.2 °F 23.0 °F 72% 29.95 in 10.0 mi SE 15.0 mph - N/A   Unknown
4:53 PM 30.0 °F 24.1 °F 23.0 °F 75% 29.92 in 10.0 mi SSE 5.8 mph - N/A   Clear
5:53 PM 32.0 °F 24.2 °F 23.0 °F 69% 29.89 in 10.0 mi South 9.2 mph - N/A   Clear
6:53 PM 33.1 °F 26.9 °F 21.9 °F 64% 29.88 in - South 6.9 mph - N/A   Clear
7:53 PM 30.0 °F 23.2 °F 19.9 °F 66% 29.88 in 10.0 mi South 6.9 mph - N/A   Clear
8:53 PM 30.9 °F 25.2 °F 19.9 °F 64% 29.87 in 10.0 mi SW 5.8 mph - N/A   Clear
9:53 PM 28.9 °F 21.1 °F 19.9 °F 69% 29.87 in 10.0 mi WSW 8.1 mph - N/A   Clear
10:53 PM 28.9 °F 19.8 °F 19.9 °F 69% 29.88 in - West 10.4 mph - N/A   Clear
11:53 PM 26.1 °F 15.6 °F 18.0 °F 71% 29.89 in 10.0 mi West 11.5 mph - N/A   Clear